This is the latest recevied weather packets stored in our database for station/object KE0LFX. If no packets are shown the sender has not sent any weather packets the latest 10 day(s).
| Time | Temp. | Humidity | Pressure | Rain* | Wind** | Luminosity | Snow |
|---|---|---|---|---|---|---|---|
| 1777641127 | 6.67° C | 70% | 1021.6 hPa | 0 mm | - | 94 W/m² | - |
| 1777640823 | 6.67° C | 72% | 1021.5 hPa | 0 mm | - | 90 W/m² | - |
| 1777640520 | 6.11° C | 72% | 1021.7 hPa | 0 mm | - | 76 W/m² | - |
| 1777640217 | 6.11° C | 73% | 1021.3 hPa | 0 mm | - | 86 W/m² | - |
| 1777639913 | 5.56° C | 74% | 1021.3 hPa | 0 mm | - | 76 W/m² | - |
| 1777639611 | 5.56° C | 74% | 1021.5 hPa | 0 mm | - | 73 W/m² | - |
| 1777639308 | 5.56° C | 75% | 1021.7 hPa | 0 mm | - | 71 W/m² | - |
| 1777639003 | 5.56° C | 76% | 1021.6 hPa | 0 mm | - | 57 W/m² | - |
| 1777638699 | 5° C | 76% | 1021.3 hPa | 0 mm | - | 42 W/m² | - |
| 1777638396 | 5° C | 76% | 1021.5 hPa | 0 mm | - | 44 W/m² | - |
| 1777638093 | 5° C | 77% | 1021.2 hPa | 0 mm | - | 36 W/m² | - |
| 1777637789 | 4.44° C | 77% | 1021.3 hPa | 0 mm | - | 42 W/m² | - |
| 1777637485 | 4.44° C | 77% | 1021.3 hPa | 0 mm | - | 47 W/m² | - |
| 1777637183 | 4.44° C | 77% | 1021.4 hPa | 0 mm | - | 37 W/m² | - |
| 1777636880 | 4.44° C | 77% | 1021.4 hPa | 0 mm | - | 21 W/m² | - |
| 1777636575 | 4.44° C | 77% | 1021.4 hPa | 0 mm | - | 18 W/m² | - |
| 1777636272 | 5° C | 77% | 1021.2 hPa | 0 mm | - | 19 W/m² | - |
| 1777635966 | 5° C | 76% | 1021.3 hPa | 0 mm | - | 15 W/m² | - |
| 1777635662 | 5° C | 76% | 1021.3 hPa | 0 mm | - | 12 W/m² | - |
| 1777635359 | 5° C | 75% | 1021.4 hPa | 0 mm | - | 10 W/m² | - |
| 1777635056 | 4.44° C | 75% | 1021.3 hPa | 0 mm | - | 11 W/m² | - |
| 1777634752 | 4.44° C | 75% | 1021.1 hPa | 0 mm | - | 6 W/m² | - |
| 1777634450 | 4.44° C | 75% | 1021.2 hPa | 0 mm | - | 4 W/m² | - |
| 1777634146 | 4.44° C | 75% | 1021.3 hPa | 0 mm | - | 3 W/m² | - |
| 1777633842 | 4.44° C | 74% | 1021.1 hPa | 0 mm | - | 3 W/m² | - |
* Rain latest hour (hover to see other rain measurements)
** Current wind speed in m/s (hover to see current wind gust speed)